Gaylord, MI

7:25 AM EDT on April 30, 2017 (GMT -0400)
Otsego County

Weather History for KGLR - January, 2013

Change the Weather History Date:

Friday, January 25, 2013

  Actual Average Record
Temperature  
Mean Temperature 10 °F -  
Max Temperature 16 °F 27 °F 47 °F (1967)
Min Temperature 3 °F 12 °F -12 °F (1961)
Degree Days  
Heating Degree Days 56    
Moisture  
Dew Point 6 °F    
Average Humidity 82    
Maximum Humidity 92    
Minimum Humidity 69    
Precipitation  
Precipitation 0.00 in - - ()
Sea Level Pressure  
Sea Level Pressure 30.09 in    
Wind  
Wind Speed 8 mph (South)    
Max Wind Speed 16 mph    
Max Gust Speed -    
Visibility 4 miles    
Events Snow    
Averages and records for this station are not official NWS values.
T = Trace of Precipitation, MM = Missing Value Source: NWS Daily Summary

Daily Weather History Graph

Daily Weather History Graph

Search for Another Location

Airport or City:

Trip Planner

Search our weather history database for the weather conditions in past years. The results will help you decide how hot, cold, wet, or windy it might be!

Date:

Astronomy

Jan. 25, 2013 Rise Set
Actual Time 8:05 AM EST 5:37 PM EST
Civil Twilight 7:33 AM EST 6:09 PM EST
Nautical Twilight 6:58 AM EST 6:44 PM EST
Astronomical Twilight 6:23 AM EST 7:19 PM EST
Moon 4:33 PM EST (1/25) 6:45 AM EST (1/25)
Length of Visible Light 10h 35m
Length of Day
9h 31m
Waxing Gibbous, 98% of the Moon is Illuminated
Jan 25
Waxing Gibbous
Jan 26
Full
Feb 3
Last Quarter
Feb 10
New
Feb 17
First Quarter

Hourly Weather History & Observations

Time (EST) Temp. Windchill Dew Point Humidity Pressure Visibility Wind Dir Wind Speed Gust Speed Precip Events Conditions
12:53 AM 3.9 °F -6.9 °F -2.9 °F 73% 30.45 in 10.0 mi South 5.8 mph - N/A   Overcast
1:53 AM 5.0 °F -6.9 °F -2.9 °F 70% 30.41 in 10.0 mi South 6.9 mph - N/A   Overcast
2:53 AM 6.1 °F -0.9 °F -2.0 °F 69% 30.38 in 10.0 mi South 3.5 mph - N/A   Overcast
3:36 AM 6.8 °F -3.5 °F -0.4 °F 72% 30.26 in 5.0 mi South 5.8 mph - 0.00 in Snow Light Snow
3:49 AM 6.8 °F -5.9 °F 1.4 °F 79% 30.25 in 2.0 mi South 8.1 mph - 0.00 in Snow Light Snow
3:53 AM 6.1 °F -5.6 °F 1.0 °F 80% 30.35 in 2.0 mi South 6.9 mph - 0.00 in Snow Light Snow
4:06 AM 6.8 °F -4.8 °F 1.4 °F 79% 30.25 in 4.0 mi South 6.9 mph - 0.00 in Snow Light Snow
4:30 AM 6.8 °F -6.9 °F 1.4 °F 79% 30.23 in 2.5 mi South 9.2 mph - 0.00 in Snow Light Snow
4:39 AM 6.8 °F -7.8 °F 1.4 °F 79% 30.23 in 1.2 mi South 10.4 mph - 0.00 in Snow Light Snow
4:53 AM 6.1 °F -9.5 °F 3.0 °F 87% 30.32 in 2.5 mi South 11.5 mph - 0.00 in Snow Light Snow
5:03 AM 6.8 °F -7.8 °F 3.2 °F 85% 30.21 in 1.5 mi South 10.4 mph - 0.00 in Snow Light Snow
5:14 AM 6.8 °F -5.9 °F 3.2 °F 85% 30.20 in 2.5 mi South 8.1 mph - 0.00 in Snow Light Snow
5:41 AM 6.8 °F -4.8 °F 3.2 °F 85% 30.19 in 2.5 mi South 6.9 mph - 0.00 in Snow Light Snow
5:48 AM 6.8 °F -6.9 °F 3.2 °F 85% 30.18 in 4.0 mi South 9.2 mph - 0.00 in Snow Light Snow
5:53 AM 7.0 °F -4.5 °F 3.0 °F 84% 30.28 in 4.0 mi South 6.9 mph - 0.00 in Snow Light Snow
6:53 AM 7.0 °F -5.7 °F 3.0 °F 84% 30.25 in 4.0 mi SSE 8.1 mph - 0.00 in Snow Light Snow
7:05 AM 6.8 °F -5.9 °F 3.2 °F 85% 30.14 in 2.5 mi South 8.1 mph - 0.00 in Snow Light Snow
7:15 AM 6.8 °F -5.9 °F 3.2 °F 85% 30.13 in 3.0 mi South 8.1 mph - 0.00 in Snow Light Snow
7:53 AM 7.0 °F -5.7 °F 3.9 °F 87% 30.22 in 4.0 mi SSE 8.1 mph - 0.00 in Snow Light Snow
8:53 AM 8.1 °F -4.3 °F 3.9 °F 83% 30.19 in 2.0 mi South 8.1 mph - 0.00 in Snow Light Snow
9:01 AM 8.6 °F -4.7 °F 3.2 °F 79% 30.09 in 1.5 mi South 9.2 mph - 0.00 in Snow Light Snow
9:44 AM 8.6 °F -4.7 °F 5.0 °F 85% 30.07 in 2.5 mi South 9.2 mph - 0.00 in Snow Light Snow
9:53 AM 9.0 °F -3.2 °F 5.0 °F 84% 30.16 in 4.0 mi South 8.1 mph - 0.00 in   Overcast
10:16 AM 10.4 °F -2.4 °F 6.8 °F 85% 30.06 in 2.5 mi South 9.2 mph - 0.00 in Snow Light Snow
10:23 AM 10.4 °F -3.3 °F 6.8 °F 85% 30.06 in 5.0 mi South 10.4 mph - 0.00 in   Overcast
10:53 AM 10.9 °F -4.7 °F 6.1 °F 81% 30.14 in 10.0 mi South 13.8 mph - 0.00 in   Overcast
11:53 AM 12.9 °F -2.2 °F 8.1 °F 81% 30.09 in 6.0 mi South 13.8 mph - N/A   Haze
12:12 PM 12.2 °F -1.8 °F 8.6 °F 85% 29.99 in 2.0 mi South 11.5 mph - 0.00 in Snow Light Snow
12:22 PM 12.2 °F -2.5 °F 8.6 °F 85% 29.98 in 1.5 mi South 12.7 mph - 0.00 in Snow Light Snow
12:34 PM 14.0 °F -0.8 °F 8.6 °F 79% 29.97 in 2.5 mi South 13.8 mph - 0.00 in Snow Light Snow
12:45 PM 14.0 °F -0.8 °F 8.6 °F 79% 29.96 in 5.0 mi South 13.8 mph - 0.00 in   Haze
12:53 PM 14.0 °F -2.0 °F 9.0 °F 80% 30.05 in 9.0 mi South 16.1 mph - 0.00 in   Overcast
1:29 PM 15.8 °F 3.4 °F 10.4 °F 79% 29.93 in 1.8 mi South 10.4 mph - 0.00 in Snow Light Snow
1:37 PM 15.8 °F 2.7 °F 10.4 °F 79% 29.93 in 1.5 mi South 11.5 mph - 0.00 in Snow Light Snow
1:53 PM 15.1 °F 1.8 °F 10.0 °F 80% 30.01 in 1.5 mi South 11.5 mph - 0.00 in Snow Light Snow
1:59 PM 15.8 °F 2.7 °F 10.4 °F 79% 29.91 in 3.0 mi South 11.5 mph - 0.00 in Snow Light Snow
2:17 PM 15.8 °F 2.7 °F 10.4 °F 79% 29.90 in 10.0 mi South 11.5 mph - 0.00 in   Overcast
2:53 PM 16.0 °F 4.4 °F 10.0 °F 77% 29.98 in 4.0 mi SSE 9.2 mph - 0.00 in Snow Light Snow
3:53 PM 16.0 °F 4.4 °F 10.0 °F 77% 29.98 in 4.0 mi SSE 9.2 mph - 0.00 in Snow Light Snow
4:22 PM 15.8 °F 6.1 °F 10.4 °F 79% 29.90 in 2.5 mi SSE 6.9 mph - 0.00 in Snow Light Snow
4:43 PM 15.8 °F 4.2 °F 10.4 °F 79% 29.90 in 2.0 mi SSE 9.2 mph - 0.00 in Snow Light Snow
4:53 PM 16.0 °F 6.3 °F 10.9 °F 81% 29.99 in 2.5 mi SSE 6.9 mph - 0.00 in Snow Light Snow
5:10 PM 15.8 °F 7.2 °F 10.4 °F 79% 29.90 in 1.2 mi SSE 5.8 mph - 0.00 in Snow Light Snow
5:51 PM 15.8 °F 7.2 °F 12.2 °F 86% 29.91 in 3.0 mi South 5.8 mph - 0.00 in Snow Light Snow
5:53 PM 15.1 °F 6.4 °F 10.9 °F 84% 29.99 in 4.0 mi South 5.8 mph - 0.00 in Snow Light Snow
6:00 PM 15.8 °F 8.6 °F 10.4 °F 79% 29.91 in 8.0 mi South 4.6 mph - 0.00 in   Overcast
6:53 PM 15.1 °F 6.4 °F 10.9 °F 84% 30.00 in 8.0 mi South 5.8 mph - 0.00 in   Overcast
7:53 PM 15.1 °F 7.7 °F 12.0 °F 88% 30.01 in 4.0 mi South 4.6 mph - 0.00 in Snow Light Snow
8:31 PM 12.2 °F - 10.4 °F 92% 29.92 in 5.0 mi Calm Calm - 0.00 in Snow Light Snow
8:53 PM 12.9 °F 3.8 °F 10.0 °F 88% 30.01 in 6.0 mi South 5.8 mph - 0.00 in Snow Light Snow
9:13 PM 10.4 °F 2.2 °F 8.6 °F 92% 29.92 in 6.0 mi South 4.6 mph - 0.00 in Snow Light Snow
9:53 PM 10.9 °F 4.7 °F 9.0 °F 92% 30.01 in 8.0 mi South 3.5 mph - 0.00 in   Overcast
10:53 PM 10.0 °F - 7.0 °F 87% 30.03 in 8.0 mi Calm Calm - N/A   Overcast
11:53 PM 9.0 °F - 6.1 °F 88% 30.04 in 6.0 mi Calm Calm - N/A   Mostly Cloudy